Regional Weather Roundup
Issued by NWS

Home | Current Version | Previous Version | Graphics & Text | Print | Product List | Glossary On
Versions: 1 2 3 4 5 6 7 8 9 10 11 12 13 14 15 16 17 18 19 20 21 22 23 24 25 26 27 28 29 30 31 32 33 34 35 36 37 38 39 40 41 42 43 44 45 46 47 48 49 50
000
ASUS43 KDMX 200101
RWRIA

WEATHER ROUNDUP FOR IOWA
NATIONAL WEATHER SERVICE DES MOINES IA
800 PM CDT SAT MAY 19 2018

NOTE: "FAIR" INDICATES FEW OR NO CLOUDS BELOW 12,000 FEET WITH NO
SIGNIFICANT WEATHER AND/OR OBSTRUCTIONS TO VISIBILITY.

* - THESE STATIONS ARE NOT NWS STATIONS...THUS NOT UNDER NWS
QUALITY CONTROL.  THEY ALSO DO NOT REPORT WEATHER SUCH
AS PRECIPITATION OR FOG.

IAZ001>003-012>014-020>022-031>034-043>046-200200-
   NORTHWEST IOWA

CITY           SKY/WX    TMP DP  RH WIND       PRES   REMARKS
CARROLL *      CLOUDY   N/A N/A N/A N7        29.97R
CHEROKEE *     CLOUDY    57  55  91 CALM      30.00R
DENISON *      CLOUDY    61  55  82 N6G15     30.00R
LE MARS *      CLOUDY    57  54  88 N3        30.00R
ORANGE CITY *  LGT RAIN  57  55  94 N3        30.00R
SHELDON *      LGT RAIN  59  54  82 NE15      29.98R
SIOUX CITY     CLOUDY    58  54  86 NW5       30.00R
SPENCER        LGT RAIN  61  50  67 NE17      29.99R
STORM LAKE *   CLOUDY    59  54  82 NE10      29.99R
$$

IAZ055>058-069>071-079>083-090>094-200200-
   SOUTHWEST IOWA

CITY           SKY/WX    TMP DP  RH WIND       PRES   REMARKS
ATLANTIC *     CLOUDY    64  57  77 N8        29.96S
AUDUBON *      CLOUDY    63  57  82 N10       29.98S
CLARINDA *     PTCLDY    72  59  64 N14       29.93F
COUNCIL BLFS * CLOUDY    61  61 100 N10       29.97S
CRESTON *      MOCLDY    66  59  77 N10       29.94S
HARLAN  *      CLOUDY    63  59  88 NE7       30.01R
LAMONI         CLOUDY    71  64  78 N8        29.90R
RED OAK *      CLOUDY    66  57  72 N14       29.94F
SHENANDOAH *   CLOUDY    68  57  68 N18       29.93F
$$

IAZ047>049-059>061-072>074-084-200200-
   CENTRAL IOWA

CITY           SKY/WX    TMP DP  RH WIND       PRES   REMARKS
AMES           MOCLDY    66  58  75 N14       29.92R
ANKENY *       CLOUDY    68  59  73 N10       29.93R
BOONE *        CLOUDY    64  57  77 N12       29.92R
CHARITON *     CLOUDY    70  66  88 N9        29.90R
DES MOINES     CLOUDY    69  60  73 N8        29.91R
GRINNELL*      CLOUDY    69  63  79 NW10      29.91R
KNOXVILLE *    CLOUDY    70  64  83 NW7       29.89S
MARSHALLTOWN   CLOUDY    68  66  93 NW7       29.90S
NEWTON *       CLOUDY    70  63  78 N8        29.91S
PELLA *        CLOUDY    71  62  72 CALM      29.91S
PERRY *        CLOUDY    64  59  84 N8        29.94R
$$

IAZ004>006-015-016-023>025-035-036-200200-
   NORTH CENTRAL IOWA

CITY           SKY/WX    TMP DP  RH WIND       PRES   REMARKS
ALGONA *       CLOUDY    61  52  72 N17       29.98R
CLARION *      CLOUDY    63  55  77 N16G23    29.93S
ESTHERVILLE    CLOUDY    57  51  80 N18       29.98F
FORT DODGE *   MOCLDY    62  55  77 N9G16     29.96R
MASON CITY     MOCLDY    61  53  75 N18       29.97R
FOREST CITY *  MOCLDY    61  54  77 NE15G23   29.96F
WEBSTER CITY * CLOUDY    64  57  77 N16       29.92R
IOWA FALLS *   MOCLDY    68  63  83 CALM      29.93R
$$

IAZ007>011-017>019-026>030-037>042-050>054-066-200200-
   NORTHEAST IOWA

CITY           SKY/WX    TMP DP  RH WIND       PRES   REMARKS
CEDAR RAPIDS   FAIR      70  63  78 NW8       29.88R
CHARLES CITY * FAIR      68  57  68 N18       29.94R
CLINTON *      MOCLDY    74  63  68 E6        29.88R
DECORAH *      FAIR      68  59  73 N12       29.92R
DUBUQUE        FAIR      73  61  65 E5        29.89R
MONTICELLO *   CLOUDY    70  64  83 NW12G18   29.90R
OELWEIN *      LGT RAIN  66  64  94 NW6       29.91S
WATERLOO       MOCLDY    66  64  93 W7        29.89R
$$

IAZ064-065-067-068-078-200200-
   EAST CENTRAL IOWA

CITY           SKY/WX    TMP DP  RH WIND       PRES   REMARKS
DAVENPORT      LGT RAIN  76  62  62 CALM      29.89R
IOWA CITY      FAIR      74  66  76 NW6       29.90R
MT. PLEASANT * CLEAR     73  63  68 S7        29.89R
MUSCATINE *    CLOUDY    77  63  61 SW6       29.88R
QUAD CITIES    FAIR      79  62  56 CALM      29.86R HX  80
$$

IAZ062-063-075>077-085>089-095>099-200200-
   SOUTHEAST IOWA

CITY           SKY/WX    TMP DP  RH WIND       PRES   REMARKS
BURLINGTON     CLOUDY    75  64  68 S5        29.88R
FAIRFIELD *    CLEAR     75  66  73 E5        29.88S
FORT MADISON * CLEAR     75  66  73 CALM      29.90R
KEOKUK *       PTCLDY    75  66  73 S5        29.89R
OSKALOOSA *    FAIR      69  66  88 N6        29.89S
CENTERVILLE *    N/A     73  64  73 CALM      29.90S
OTTUMWA        PTCLDY    76  64  66 CALM      29.88R
WASHINGTON *   CLOUDY    75  70  83 CALM      29.89S
$$

ABBREVIATIONS USED IN REMARKS
   TC - TEMPERATURES IN CELSIUS
  WCI - WIND CHILL INDEX
   HX - HEAT INDEX
  VSB - VISIBILITY
$$





USA.gov is the U.S. government's official web portal to all federal, state and local government web resources and services.